Location: Newark
(42.9858°N, 0.6717°E)
Time: 06:24:17
(UTC+00:00)

S-56A Canister/Altair - Pass Details

Date: 21 November 2019
Orbit: 633 x 2499 km, 38.9° (Epoch: 04 December)

Event Time Altitude Azimuth Distance (km) Brightness Sun altitude
Rises 16:15:14 0° 237° (WSW) 5,637 15.4 1.4°
Reaches altitude 10° 16:19:27 10° 233° (SW) 4,381 13.6 0.7°
Maximum altitude 16:30:08 51° 163° (SSE) 1,776 9.5 -1.0°
Drops below altitude 10° 16:37:16 10° 90° (E) 2,968 10.0 -2.2°
Enters shadow 16:39:26 - 85° (E) 3,671 10.4 -2.5°
Sets 16:39:36 0° 85° (E) 3,725 - -2.5°
